Tracking 29892 objects as of 21-Nov-2024
HD Live streaming from Space Station
objects crossing your sky now

STARLINK-4505

Track STARLINK-4505 now!
10-day predictions
STARLINK-4505 is classified as:


NORAD ID: 53556
Int'l Code: 2022-101AF
Perigee: 546.0 km
Apogee: 547.7 km
Inclination: 53.2 °
Period: 95.4 minutes
Semi major axis: 6917 km
RCS: Unknown
Launch date: August 19, 2022
Source: United States (US)
Launch site: AIR FORCE EASTERN TEST RANGE (AFETR)
Your satellite tracking list
Your tracking list is empty




NASA's NSSDC Master Catalog

Two Line Element Set (TLE):
1 53556U 22101AF  24325.63770412  .00003864  00000-0  26057-3 0  9990
2 53556  53.2160  32.2204 0001213  81.1139 278.9991 15.08860762124742
Source of the keplerian elements: AFSPC